Powrót do katalogu

STARLINK-35200

AktywnyŁącznośćVLEO
NORAD 65855·PAYLOAD·🇺🇸 United States

Wystrzelony Oct 3, 2025 z Vandenberg Space Force Base

Loading…

Następne Przeloty (najbliższe 24 godziny)

TLE

ŚwieżeSource: CelesTrak SupGP

Epoka: Sep 14, 2026, 21:20 UTC

1 65855C 25223B   26257.88937500 -.00059024  00000+0 -17440-2 0  2571
2 65855  53.1571 133.6369 0001228  84.5932  48.6414 15.34418378    10

Śledź STARLINK-35200 w czasie rzeczywistym z AllMySat

Download on the App Store